Location: Cahas Mountain Overlook
(37.0833°N, 80.1000°W)
Time: 19:58:02
(UTC-04:00)

Tiros 1 - Pass Details

Date: 08 February 2026
Orbit: 618 x 649 km, 48.4° (Epoch: 13 March)

Event Time Altitude Azimuth Distance (km) Brightness Sun altitude
Rises 13:02:20 0° 255° (WSW) 2,884 10.7 37.7°
Reaches altitude 10° 13:04:45 10° 263° (W) 1,977 9.9 37.6°
Maximum altitude 13:09:03 41° 334° (NNW) 895 7.9 37.5°
Drops below altitude 10° 13:13:21 10° 45° (NE) 1,978 9.3 37.3°
Sets 13:15:46 0° 53° (NE) 2,886 10.1 37.2°
